TimeEDT,TemperatureF,Dew PointF,Humidity,Sea Level PressureIn,VisibilityMPH,Wind Direction,Wind SpeedMPH,Gust SpeedMPH,PrecipitationIn,Events,Conditions,WindDirDegrees,DateUTC
12:05 AM,64.4,64.4,100,29.97,2.5,Calm,Calm,-,N/A,,Clear,0,2013-09-27 04:05:00
12:15 AM,64.4,64.4,100,29.97,1.0,Calm,Calm,-,N/A,,Clear,0,2013-09-27 04:15:00
12:21 AM,62.6,62.6,100,29.97,3.0,Calm,Calm,-,N/A,,Clear,0,2013-09-27 04:21:00
12:29 AM,62.6,62.6,100,29.97,1.8,Calm,Calm,-,N/A,,Clear,0,2013-09-27 04:29:00
12:39 AM,64.4,64.4,100,29.97,0.5,Calm,Calm,-,N/A,Fog,Fog,0,2013-09-27 04:39:00
12:53 AM,64.0,64.0,100,29.96,0.8,Calm,Calm,-,N/A,,Clear,0,2013-09-27 04:53:00
12:57 AM,64.4,64.4,100,29.96,2.0,Calm,Calm,-,N/A,,Clear,0,2013-09-27 04:57:00
1:04 AM,62.6,62.6,100,29.96,4.0,Calm,Calm,-,N/A,,Clear,0,2013-09-27 05:04:00
1:53 AM,64.0,64.0,100,29.96,4.0,Calm,Calm,-,N/A,,Clear,0,2013-09-27 05:53:00
2:53 AM,64.0,64.0,100,29.95,4.0,Calm,Calm,-,N/A,,Clear,0,2013-09-27 06:53:00
3:15 AM,62.6,62.6,100,29.96,1.8,Calm,Calm,-,N/A,,Clear,0,2013-09-27 07:15:00
3:24 AM,62.6,62.6,100,29.96,3.0,Calm,Calm,-,N/A,,Clear,0,2013-09-27 07:24:00
3:53 AM,63.0,63.0,100,29.95,4.0,Calm,Calm,-,N/A,,Clear,0,2013-09-27 07:53:00
4:53 AM,63.0,63.0,100,29.96,5.0,North,4.6,-,N/A,,Clear,360,2013-09-27 08:53:00
5:53 AM,62.1,62.1,100,29.96,6.0,Calm,Calm,-,N/A,,Clear,0,2013-09-27 09:53:00
6:53 AM,61.0,61.0,100,29.99,7.0,North,3.5,-,N/A,,Clear,10,2013-09-27 10:53:00
7:53 AM,61.0,60.1,97,30.00,6.0,North,5.8,-,N/A,,Clear,10,2013-09-27 11:53:00
8:08 AM,62.6,60.8,94,30.01,7.0,Variable,3.5,-,N/A,,Partly Cloudy,0,2013-09-27 12:08:00
8:53 AM,64.9,62.1,90,30.03,10.0,Variable,4.6,-,N/A,,Clear,0,2013-09-27 12:53:00
9:53 AM,69.1,62.1,78,30.04,10.0,Variable,5.8,-,N/A,,Clear,0,2013-09-27 13:53:00
10:53 AM,73.0,61.0,66,30.05,10.0,NE,9.2,-,N/A,,Clear,50,2013-09-27 14:53:00
11:53 AM,75.0,60.1,60,30.05,10.0,NNE,8.1,-,N/A,,Clear,30,2013-09-27 15:53:00
12:53 PM,79.0,61.0,54,30.04,10.0,Variable,5.8,-,N/A,,Clear,0,2013-09-27 16:53:00
1:53 PM,80.1,61.0,52,30.02,10.0,Variable,4.6,-,N/A,,Clear,0,2013-09-27 17:53:00
2:53 PM,80.1,60.1,50,30.00,10.0,NNE,8.1,-,N/A,,Clear,30,2013-09-27 18:53:00
3:53 PM,81.0,57.9,45,29.99,10.0,North,9.2,-,N/A,,Clear,360,2013-09-27 19:53:00
4:53 PM,80.1,55.9,43,30.00,10.0,NE,6.9,-,N/A,,Clear,50,2013-09-27 20:53:00
5:53 PM,79.0,55.0,44,30.01,10.0,Variable,5.8,-,N/A,,Clear,0,2013-09-27 21:53:00
6:53 PM,75.9,55.9,50,30.01,10.0,Variable,3.5,-,N/A,,Clear,0,2013-09-27 22:53:00
7:53 PM,66.9,59.0,76,30.02,10.0,Calm,Calm,-,N/A,,Clear,0,2013-09-27 23:53:00
8:53 PM,66.0,60.1,81,30.04,10.0,Calm,Calm,-,N/A,,Clear,0,2013-09-28 00:53:00
9:53 PM,66.9,59.0,76,30.06,10.0,Calm,Calm,-,N/A,,Clear,0,2013-09-28 01:53:00
10:53 PM,63.0,60.1,90,30.08,10.0,Calm,Calm,-,N/A,,Clear,0,2013-09-28 02:53:00
11:53 PM,64.9,59.0,81,30.07,10.0,Calm,Calm,-,N/A,,Clear,0,2013-09-28 03:53:00